星链-5794 (STARLINK-5794 )

导读 | 豆包AI

STARLINK-5794是美国SpaceX公司星链(Starlink)卫星互联网星座项目中的一颗低轨卫星,于2023年3月24日发射升空。星链计划旨在通过部署上万颗低轨卫星,为全球偏远地区等地面网络难覆盖区域提供高速低延迟互联网接入服务,该卫星也为星链星座的全球覆盖能力拓展提供支撑,不过星链大规模卫星部署也引发了太空拥堵等争议。

基本信息
目录编号:
56006
目录名称:
STARLINK-5794
国际标识:
2023-042W
轨道中心:
EARTH
卫星名称:
星链-5794
卫星全名:
星链-5794 (STARLINK-5794 )
卫星状态:
在轨 (已飞行1133 天)
发射日期:
2023-03-24 UTC
国别 :
美国 (US)
星等 :
--
轨道信息
数据来源 国际轨道数据
星历时间: 2026-04-30T12:00:01+0800
5小时前
查看轨道信息
半长轴: 6908.359km
偏心率: 0.0001177
轨道倾角: 43.000°
近地点辐角 270.333°
升交点赤经 133.187°
平近点角 20.834°
近地点: 529.408km
远地点: 531.036km
周期: 95.241分钟
每日圈数: 15.119605
详细信息
固有亮度:
5
最大亮度:
2.5
卫星平台:
Starlink v1.5
覆盖范围:
全球
运营商:
太空探索技术公司
运营商所在国:
美国
制造商(研发单位):
太空探索技术公司
制造商所在国:
美国
使用方式:
暂无
卫星简介
星链(Starlink)计划是由太空探索技术公司(SpaceX)提出的一个巨型低轨卫星互联网星座项目,计划在2019年至2024年间在太空搭建由约1.2万颗卫星组成的“星链”网络,其中1584颗将部署在地球上空550千米处的近地轨道,并从2020年开始工作。该卫星仍在工作。
2D轨道图
3D轨道图
轨道高度分析图
轨道倾角分析图
轨道综合分析图
查看轨道综合分析图